COSMOS 1275 DEB

Satellite information

Favourite Embed

Satellite Type and Status

DEBRISIN ORBIT

Key statistics

Satellite COSMOS 1275 DEB at a glance.

Uptime

16162

Days in orbit

Revolutions

≈ 13.8

Per day

Orbit

LEO

Low Earth Orbit

Inclination

83.1

Latest

Satellite identification and parameters

Extended collection of information and parameters for COSMOS 1275 DEB.

Object identification

Identified? True

Debris? True

Object name: COSMOS 1275 DEB

International designator: 1981-053ST

Object number (NORAD): 42179

Object ID (CCSDS): 42179

Country: COMMONWEALTH OF INDEPENDENT STATES (CIS)

Current information (Y/N): Y

RCS size: SMALL

Orbital parameters

Period: 104.668 minutes

Inclination: 83.1258 deg

SMA: 7357.053 km

Apoapsis: 1051.279 km

Periapsis: 906.557 km

RAAN: 230.1379 deg

Eccentricy: 0.00983559

Argument of periapsis: 22.2438 deg

Mean anomaly: 338.294 deg

Mean motion: 13.75773459 rev/day

Mean motion (dot): 0.00002038 rev/day2

B* drag term: 0.0020199489 1/REarth

Two-line elements (TLE)

Creation date: Sept. 3, 2025, 2:21 a.m.

Reference frame: TEME

Reference center: EARTH

Epoch: Sept. 2, 2025, 4:08 p.m. UTC

TLE line 0: 0 COSMOS 1275 DEB

TLE line 1: 1 42179U 81053ST 25245.67283953 .00002038 00000-0 20199-2 0 9997

TLE line 2: 2 42179 83.1258 230.1379 0098356 22.2438 338.2940 13.75773459 14655

Live tracking on map

Real-time ground track for satellite COSMOS 1275 DEB.

In-orbit conjunctions

A list of the most updated potential collisions computed for object COSMOS 1275 DEB.

Target Orbit TCA Probability of collision Miss distance Type
CZ-6A DEB SSO 2025-05-15 13:16:12 0.000149265 109.0 (m) DEBRIS
THOR ABLESTAR DEB LEO 2024-11-11 05:22:06 0.0003287023 380.0 (m) DEBRIS

Associated space launch

Navigation satellite providing location information for the Tsiklon-B navigation system

COSMOS 1275 DEB was lifted into orbit during the mission ‘Kosmos-3M | Parus 27’, on board a Kosmos-3M space rocket.

The launch took place on June 4, 1981, 3:41 p.m. from 132/2.

For more information about the launch, click the button.

Launch to space Kosmos-3M | Parus 27
Kosmos-3M | Parus 27

Agency: N/A

Status: Launch Successful

Launch date: June 4, 1981, 3:41 p.m. UTC

Rocket: Kosmos-3M

Launch pad: 132/2

Location: Plesetsk Cosmodrome, Russian Federation

...

Latest news about this satellite

There are no fresh news available about this satellite. Check back as we update our databases every day.


Newsletter sign-up

Weekly statistics, charts and insights to help you stay on top of the space industry.